EW2293 Weather Reports


Display with metric or nautical units.
time (UTC)temp
F
wind
direction
speed
MPH
gust
MPH
rain 1hr
in
rain 24hr
in
rain mn
in
humidity
%
barometer
mb
20260906123142 73 333 3.0 5.0 0.00 1.54 0.01 99 1011.6
20260906122121 73 335 4.0 5.0 0.00 1.54 0.01 99 1011.7
20260906121121 72 311 2.0 3.0 0.00 1.54 0.01 99 1011.5
20260906120126 72 321 2.0 5.0 0.00 1.54 0.01 99 1011.5
20260906120122 72 323 2.0 5.0 0.00 1.54 0.01 99 1011.5
20260906115121 71 342 1.0 4.0 0.00 1.54 0.01 99 1011.5
20260906114121 71 315 0.0 0.0 0.00 1.54 0.01 99 1011.5
20260906113121 70 315 0.0 0.0 0.00 1.54 0.01 99 1011.2
20260906112122 70 360 0.0 0.0 0.00 1.54 0.01 99 1011.3
20260906111142 70 338 0.0 0.0 0.00 1.54 0.01 99 1011.1
20260906110121 70 360 0.0 0.0 0.00 1.54 0.01 99 1011.0
20260906105121 70 315 0.0 0.0 0.00 1.54 0.01 99 1010.7
20260906104121 70 248 0.0 0.0 0.00 1.54 0.01 99 1010.7
20260906103121 70 45 0.0 0.0 0.00 1.54 0.01 99 1010.7
20260906102142 70 45 0.0 0.0 0.00 1.54 0.01 99 1010.6
20260906101121 70 23 0.0 0.0 0.00 1.54 0.01 99 1010.2
20260906100121 70 315 0.0 0.0 0.00 1.54 0.01 99 1010.1
20260906095121 70 270 0.0 0.0 0.00 1.54 0.01 99 1010.1
20260906094121 70 23 0.0 0.0 0.00 1.54 0.01 99 1010.1
20260906093121 70 270 0.0 0.0 0.00 1.54 0.01 99 1010.0
20260906092121 71 270 0.0 0.0 0.00 1.54 0.01 99 1009.9
20260906091121 71 360 0.0 0.0 0.00 1.54 0.01 99 1009.9
20260906090121 71 315 0.0 0.0 0.00 1.54 0.01 99 1010.0
20260906085121 71 315 0.0 0.0 0.00 1.54 0.01 99 1009.9
20260906084121 71 315 0.0 0.0 0.00 1.54 0.01 99 1009.7
20260906083121 71 23 0.0 0.0 0.00 1.54 0.01 99 1009.7
20260906082142 71 23 0.0 0.0 0.00 1.54 0.01 99 1010.0
20260906081142 71 293 0.0 0.0 0.00 1.54 0.01 99 1009.9
20260906080121 71 293 0.0 0.0 0.01 1.54 0.01 99 1009.9
20260906075121 71 360 0.0 0.0 0.01 1.54 0.01 99 1009.9
20260906074121 71 270 0.0 0.0 0.01 1.54 0.01 99 1009.9
20260906073121 71 315 0.0 0.0 0.01 1.54 0.01 99 1009.8
20260906072121 71 180 0.0 0.0 0.01 1.54 0.01 99 1009.8
20260906071142 71 23 0.0 0.0 0.01 1.54 0.01 99 1009.8
20260906070124 71 270 0.0 0.0 0.00 1.53 0.00 99 1009.8
20260906065123 71 315 0.0 0.0 0.00 1.53 0.00 99 1010.0
20260906064125 71 23 0.0 0.0 0.00 1.53 0.00 99 1010.0
20260906063143 71 203 0.0 0.0 0.00 1.53 0.00 99 1010.2
20260906062122 71 23 0.0 0.0 0.00 1.53 0.00 99 1010.1
20260906061121 71 45 0.0 0.0 0.00 1.53 0.00 99 1010.5
20260906060122 72 23 0.0 0.0 0.00 1.53 0.00 99 1010.4
20260906055121 71 45 0.0 0.0 0.00 1.53 0.00 99 1010.7
20260906054124 71 23 0.0 0.0 0.00 1.53 0.00 99 1010.6
20260906053124 71 113 0.0 0.0 0.00 1.53 0.00 99 1010.6
20260906052124 71 113 0.0 0.0 0.00 1.53 0.00 99 1010.9
20260906051122 71 113 0.0 0.0 0.00 1.53 0.00 99 1011.0
20260906050142 71 328 0.0 3.0 0.00 1.53 0.00 99 1010.8
20260906045123 71 315 0.0 0.0 0.00 1.53 0.00 99 1010.6
20260906044121 71 293 0.0 0.0 0.00 1.53 0.00 99 1010.6
20260906043142 71 158 0.0 0.0 0.00 1.53 0.00 99 1010.6
20260906042124 71 248 0.0 0.0 0.00 1.53 0.00 99 1010.5
20260906041123 71 180 0.0 0.0 0.00 1.53 0.00 99 1010.4
20260906040124 71 337 0.0 2.0 0.00 1.53 0.00 99 1010.6
20260906035122 71 316 3.0 5.0 0.00 1.53 1.53 99 1010.7
20260906034121 71 13 1.0 4.0 0.00 1.53 1.53 99 1010.7
20260906033143 71 304 1.0 5.0 0.00 1.53 1.53 99 1010.7
20260906032121 71 332 2.0 4.0 0.00 1.53 1.53 99 1010.5
20260906031122 72 297 3.0 6.0 0.00 1.53 1.53 99 1011.0
20260906030124 72 302 2.0 4.0 0.00 1.53 1.53 99 1011.0
20260906025123 72 328 1.0 4.0 0.00 1.53 1.53 99 1011.0
20260906024123 72 180 0.0 0.0 0.00 1.53 1.53 99 1011.0
20260906023123 72 225 0.0 0.0 0.00 1.53 1.53 99 1011.0
20260906022143 72 265 1.0 3.0 0.00 1.53 1.53 99 1011.0
20260906021122 72 213 1.0 4.0 0.00 1.53 1.53 99 1011.0
20260906020121 72 193 1.0 3.0 0.00 1.53 1.53 99 1011.0
20260906015142 72 175 1.0 4.0 0.00 1.53 1.53 99 1011.3
20260906014142 72 209 1.0 4.0 0.00 1.53 1.53 99 1011.3
20260906013145 72 197 2.0 6.0 0.00 1.53 1.53 99 1011.0
20260906012124 72 188 4.0 7.0 0.00 1.53 1.53 99 1010.6
20260906011123 72 201 4.0 6.0 0.00 1.53 1.53 99 1010.3
20260906010142 72 191 3.0 6.0 0.01 1.53 1.53 99 1010.3
20260906005123 72 191 2.0 4.0 0.02 1.53 1.53 99 1009.6
20260906004121 72 113 0.0 0.0 0.04 1.53 1.53 99 1009.9
20260906003123 72 270 0.0 2.0 0.05 1.53 1.53 99 1009.9
20260906002124 72 178 2.0 4.0 0.06 1.53 1.53 99 1009.4
20260906001121 72 193 2.0 4.0 0.06 1.53 1.53 99 1010.0
20260906000122 72 188 1.0 2.0 0.05 1.52 1.52 99 1009.7
20260905235121 72 200 2.0 7.0 0.22 1.51 1.51 99 1009.9
20260905234122 72 128 3.0 7.0 0.91 1.49 1.49 99 1009.9
20260905233142 72 189 3.0 5.0 1.48 1.48 1.48 99 1009.4
20260905232142 72 172 3.0 7.0 1.47 1.47 1.47 99 1008.8
20260905231142 72 97 3.0 5.0 1.47 1.47 1.47 99 1009.1
20260905230126 73 63 3.0 7.0 1.47 1.47 1.47 99 1012.8
20260905230122 73 56 4.0 7.0 1.47 1.47 1.47 99 1012.8
20260905225124 73 324 7.0 18.0 1.29 1.29 1.29 97 1008.4
20260905224128 77 242 5.0 9.0 0.64 0.64 0.64 97 1008.4
20260905223126 80 353 11.0 25.0 0.00 0.00 0.00 85 1008.4
20260905222121 84 350 5.0 11.0 0.00 0.00 0.00 80 1009.0
20260905221122 86 37 4.0 9.0 0.00 0.00 0.00 78 1008.1
20260905220122 88 59 4.0 9.0 0.00 0.00 0.00 76 1008.1
20260905215121 93 107 2.0 3.0 0.00 0.00 0.00 75 1007.8
20260905214146 94 121 1.0 2.0 0.00 0.00 0.00 72 1007.8
20260905213145 93 118 1.0 2.0 0.00 0.00 0.00 75 1007.5
20260905212124 95 194 2.0 3.0 0.00 0.00 0.00 65 1007.2
20260905211121 96 33 1.0 2.0 0.00 0.00 0.00 63 1007.3
20260905210121 96 190 3.0 5.0 0.00 0.00 0.00 59 1007.4
20260905205123 97 192 3.0 5.0 0.00 0.00 0.00 59 1007.2
20260905204121 98 196 3.0 5.0 0.00 0.00 0.00 59 1007.2
20260905203121 98 148 3.0 7.0 0.00 0.00 0.00 59 1007.0
20260905202124 99 334 3.0 7.0 0.00 0.00 0.00 56 1007.1
20260905201125 99 221 3.0 5.0 0.00 0.00 0.00 61 1007.4
20260905200126 99 141 3.0 6.0 0.00 0.00 0.00 57 1007.5
20260905195124 99 219 3.0 5.0 0.00 0.00 0.00 58 1007.7
20260905194121 100 207 3.0 5.0 0.00 0.00 0.00 60 1007.7
20260905193123 99 200 4.0 6.0 0.00 0.00 0.00 58 1008.0
20260905192122 100 169 3.0 4.0 0.00 0.00 0.00 60 1008.2
20260905191122 98 238 2.0 5.0 0.00 0.00 0.00 59 1008.4
20260905190121 97 335 3.0 5.0 0.00 0.00 0.00 59 1008.6
20260905185121 100 323 3.0 5.0 0.00 0.00 0.00 59 1008.8
20260905184121 100 184 3.0 6.0 0.00 0.00 0.00 59 1008.8
20260905183143 98 175 4.0 8.0 0.00 0.00 0.00 64 1008.8
20260905182121 98 317 2.0 4.0 0.00 0.00 0.00 62 1009.3
20260905181121 99 289 3.0 5.0 0.00 0.00 0.00 60 1009.5
20260905180121 98 309 3.0 6.0 0.00 0.00 0.00 62 1009.7
20260905175121 97 305 4.0 7.0 0.00 0.00 0.00 63 1009.8
20260905174121 98 261 4.0 8.0 0.00 0.00 0.00 61 1009.8
20260905173142 98 295 4.0 6.0 0.00 0.00 0.00 61 1009.9
20260905172121 97 325 4.0 7.0 0.00 0.00 0.00 65 1010.1
20260905171123 98 313 4.0 9.0 0.00 0.00 0.00 62 1010.3
20260905170121 96 169 3.0 5.0 0.00 0.00 0.00 68 1010.3
20260905165122 96 269 3.0 8.0 0.00 0.00 0.00 67 1010.6
20260905164334 95 236 4.0 10.0 0.00 0.00 0.00 68 1010.6
20260905163122 96 207 5.0 9.0 0.00 0.00 0.00 69 1010.7
20260905162122 95 172 4.0 6.0 0.00 0.00 0.00 71 1011.0
20260905161121 95 315 4.0 9.0 0.00 0.00 0.00 70 1011.3
20260905160121 95 223 4.0 9.0 0.00 0.00 0.00 70 1011.4
20260905155121 93 165 5.0 9.0 0.00 0.00 0.00 71 1011.3
20260905154121 94 97 3.0 6.0 0.00 0.00 0.00 71 1011.3
20260905153142 94 292 3.0 6.0 0.00 0.00 0.00 73 1011.4
20260905152142 93 186 5.0 9.0 0.00 0.00 0.00 73 1011.4
20260905151122 93 237 4.0 6.0 0.00 0.00 0.00 73 1011.4
20260905150121 92 159 5.0 8.0 0.00 0.00 0.00 76 1011.4
20260905145121 91 164 4.0 9.0 0.00 0.00 0.00 76 1011.4
20260905144122 91 188 5.0 12.0 0.00 0.00 0.00 77 1011.4
20260905143123 91 181 4.0 11.0 0.00 0.00 0.00 79 1011.5
20260905142121 90 186 5.0 11.0 0.00 0.00 0.00 79 1011.4
20260905141121 90 318 3.0 8.0 0.00 0.00 0.00 79 1011.5
20260905140122 89 173 3.0 5.0 0.00 0.00 0.00 81 1011.6
20260905135123 88 200 3.0 5.0 0.00 0.00 0.00 82 1011.7
20260905134121 88 151 3.0 5.0 0.00 0.00 0.00 86 1011.7
20260905133121 87 151 3.0 7.0 0.00 0.00 0.00 86 1011.9
20260905132123 86 197 4.0 8.0 0.00 0.00 0.00 87 1011.9
20260905131121 86 166 2.0 5.0 0.00 0.00 0.00 87 1011.9
20260905130143 85 172 3.0 6.0 0.00 0.00 0.00 89 1012.0
20260905125121 84 181 3.0 6.0 0.00 0.00 0.00 89 1012.0
20260905124122 83 182 4.0 6.0 0.00 0.00 0.00 91 1012.0